Weather Roundup
Issued by NWS

Home | Current Version | Previous Version | Graphics & Text | Print | Product List | Glossary Off
Versions: 1 2 3 4 5 6 7 8 9 10 11 12 13 14 15 16 17 18 19 20 21 22 23 24 25 26 27 28 29 30 31 32 33 34 35 36 37 38 39 40 41 42 43 44 45 46 47 48 49 50

759
NZUS93 KARX 091059
HRRWXR

CURRENT HOURLY OBSERVATIONS ACROSS
MUCH OF THE UPPER MISSISSIPPI VALLEY
NATIONAL WEATHER SERVICE LA CROSSE WI
500 AM CST FRI DEC 09 2016


...SOUTHEAST MINNESOTA...


CITY           SKY/WX    TMP DP  RH WIND       PRES   REMARKS
ROCHESTER      MOCLDY    11   8  88 W10       30.51R WCI  -3
ROCHESTER/MAYO FAIR      12  10  92 W9        30.52S WCI   0
WINONA           N/A     19  14  79 W6        30.53S WCI  11
AUSTIN         FLURRIES  12   9  85 NW12      30.53R WCI  -2
ALBERT LEA     FLURRIES  16  10  79 NW8       30.53S WCI   5
DODGE CENTER   FLURRIES  10   9  92 W9        30.51S WCI  -2
PRESTON        CLOUDY    12   9  86 NW10      30.52R WCI  -1
OWATONNA       FLURRIES  10   7  85 W9        30.53F WCI  -2
FARIBAULT      NOT AVBL
$$

...ELSEWHERE IN MINNESOTA...


CITY           SKY/WX    TMP DP  RH WIND       PRES   REMARKS
MINNEAPOLIS    CLOUDY    14   9  80 W7        30.54S WCI   4
INTNL FALLS    CLOUDY     8   3  80 W7        30.46S WCI  -3
DULUTH         LGT SNOW  12   7  80 NW7       30.42F WCI   1
RED WING       PTCLDY    14  10  85 CALM      30.53S
REDWOOD FALLS  CLEAR      2  -3  80 W7        30.58F WCI -11
MANKATO        FLURRIES   7   3  84 NW9       30.57S WCI  -7
WORTHINGTON    CLEAR      1  -3  83 W6        30.53F WCI -10
FAIRMONT       NOT AVBL
$$

...SOUTHWEST WISCONSIN...


CITY           SKY/WX    TMP DP  RH WIND       PRES   REMARKS
LA CROSSE      CLOUDY    22  13  68 NW10      30.52R WCI  11
PRAIRIE DU CHI CLEAR     18  11  75 NW6       30.53F WCI   9
BOSCOBEL       CLOUDY    21  14  74 W6        30.52S WCI  13
LONE ROCK      NOT AVBL
PLATTEVILLE    NOT AVBL
FORT MC COY    PTCLDY    18  13  80 NW9       30.50R WCI   7
MAUSTON-NEW LI CLOUDY    21  13  71 NW12      30.45S WCI   9
VIROQUA        CLOUDY    18  15  90 W8        30.46R WCI   7
WIS DELLS      CLOUDY    20  12  69 NW7       30.45R WCI  12
$$

...ELSEWHERE IN WISCONSIN...


CITY           SKY/WX    TMP DP  RH WIND       PRES   REMARKS
MILWAUKEE      CLEAR     23  15  71 NW10      30.43R WCI  12
MADISON        PTCLDY    20  13  74 W5        30.45S WCI  13
GREEN BAY      CLOUDY    22  16  78 W9        30.40R WCI  12
EAU CLAIRE     NOT AVBL
BLACK RVR FLS  FAIR      16  11  78 NW8       30.50R WCI   5
MEDFORD        CLOUDY    15  10  81 W8        30.40R WCI   4
WAUSAU         CLOUDY    17   8  67 NW9       30.40R WCI   6
WIS RAPIDS     CLOUDY    17  11  77 NW10      30.45R WCI   5
MARSHFIELD     MOCLDY    13   8  81 NW12      30.42R WCI  -1
RICE LAKE      CLEAR     10   8  88 CALM      30.50S
$$

...NORTHEAST IOWA...


CITY           SKY/WX    TMP DP  RH WIND       PRES   REMARKS
WATERLOO       CLEAR     13   8  81 NW8       30.56R WCI   2
DUBUQUE        CLOUDY    16  12  84 NW8       30.50R WCI   5
DECORAH        CLOUDY    14  10  85 NW6       30.51R WCI   5
MASON CITY     PTCLDY    11   7  84 NW10      30.55F WCI  -3
CHARLES CITY   FLURRIES  10   7  85 NW9       30.55S WCI  -2
OELWEIN        CLOUDY    12  10  92 NW12G17   30.55R WCI  -2
$$

...ELSEWHERE IN IOWA...


CITY           SKY/WX    TMP DP  RH WIND       PRES   REMARKS
DES MOINES     CLEAR     12   6  77 NW8       30.61R WCI   0
IOWA CITY      CLEAR     16  10  77 NW8       30.59R WCI   5
FORT DODGE     CLEAR      7   0  72 NW3       30.58F
MARSHALLTOWN   CLOUDY    14   8  77 NW10      30.57S WCI   1
CEDAR RAPIDS   MOCLDY    13  11  92 NW9       30.55R WCI   1
$$

...NORTHERN ILLINOIS...


CITY           SKY/WX    TMP DP  RH WIND       PRES   REMARKS
CHICAGO-OHARE  CLOUDY    22  16  78 W9        30.45S WCI  12
CHICAGO-MIDWAY FLURRIES  23  15  71 W7        30.47R WCI  15
MOLINE         CLOUDY    20  11  68 NW8       30.55S WCI  10
ROCKFORD       FLURRIES  22  16  78 NW14      30.49S WCI   9
PEORIA         CLOUDY    22  13  68 W6        30.55R WCI  14
$$

NOTE: "FAIR" INDICATES FEW OR NO CLOUDS BELOW 12,000 FEET WITH NO
SIGNIFICANT WEATHER AND/OR OBSTRUCTIONS TO VISIBILITY. WIND
SPEEDS ARE IN MILES-PER-HOUR.




USA.gov is the U.S. government's official web portal to all federal, state and local government web resources and services.